Location: Warwick
(41.7000°N, 71.4170°W)
Time: 15:59:37
(UTC-04:00)

BREEZE-M DEB (TANK) - Visible Passes

Search period start: 21 August 2014 00:00
Search period end: 31 August 2014 00:00
Orbit: 276 x 16078 km, 49.5° (Epoch: 21 August)

Date Brightness Start Highest point End Pass type
(mag) Time Alt. Az. Time Alt. Az. Time Alt. Az.
21 Aug 8.9 00:00:00 80° NE 23:59:45 80° NE 01:25:20 10° ENE visible
21 Aug 7.6 03:50:14 10° WNW 06:15:46 75° SW 06:36:08 10° SSE visible
21 Aug 8.6 17:28:14 10° ESE 18:39:53 26° ENE 20:01:25 10° NE visible
21 Aug 8.7 22:09:16 10° SW 00:00:53 87° NW 01:43:44 10° ENE visible
22 Aug 7.5 04:16:29 10° WNW 06:33:18 68° WSW 06:52:47 10° SSE visible
22 Aug 8.5 17:38:41 10° SE 18:52:41 31° ENE 20:23:24 10° NE visible
22 Aug 8.8 22:27:05 10° SW 00:28:05 83° NNW 02:01:59 10° E visible
23 Aug 7.4 04:43:02 10° WNW 06:50:20 62° WSW 07:09:15 10° SSE visible
23 Aug 8.4 17:50:53 10° SE 19:05:45 36° E 20:44:37 10° NE visible
23 Aug 8.7 22:45:11 10° SW 00:57:19 81° NNW 02:20:05 10° E visible
24 Aug 7.3 05:09:41 10° WNW 07:06:53 55° WSW 07:25:30 10° S visible
24 Aug 8.4 18:04:14 10° SSE 19:19:09 41° E 21:05:16 10° NE visible
24 Aug 8.6 23:03:37 10° WSW 01:27:03 79° N 02:38:02 10° E visible
25 Aug 7.2 05:36:13 10° NW 07:22:59 48° WSW 07:41:33 10° S visible
25 Aug 8.3 18:18:25 10° SSE 19:32:58 46° E 21:25:30 10° NE visible
25 Aug 8.5 23:22:25 10° WSW 01:55:28 78° N 02:55:48 10° E visible
26 Aug 7.2 06:02:34 10° NW 07:38:37 42° W 07:57:19 10° SSW visible
26 Aug 8.3 18:33:12 10° SSE 19:47:17 51° E 21:45:25 10° NE visible
26 Aug 8.4 23:41:36 10° WSW 02:21:48 79° N 03:13:25 10° ESE visible
27 Aug 8.4 18:48:25 10° S 20:02:14 56° E 22:05:03 10° NE visible
28 Aug 8.3 00:01:15 10° WSW 02:46:08 80° NNE 03:30:51 10° ESE visible
28 Aug 8.4 19:04:00 10° S 20:17:54 61° ESE 22:24:28 10° ENE visible
29 Aug 8.2 00:21:24 10° W 03:08:51 82° NNE 03:48:08 10° ESE visible
29 Aug 8.4 19:19:51 10° S 20:34:25 67° ESE 22:43:41 10° ENE visible
30 Aug 8.0 00:42:07 10° W 03:30:16 85° NNE 04:05:15 10° ESE visible
30 Aug 8.5 19:35:58 10° SSW 20:51:52 72° ESE 23:02:42 10° ENE visible
